| time (UTC) | temp F | wind direction | speed MPH | gust MPH | rain 1hr in | rain 24hr in | rain mn in | humidity % | barometer mb |
| 20260831151502 | 73 | 269 | 7.0 | 0.0 | 0.00 | 0.00 | 0.00 | 43 | 1016.9 |
| 20260831151002 | 73 | 279 | 8.0 | 0.0 | 0.00 | 0.00 | 0.00 | 43 | 1016.9 |
| 20260831150503 | 73 | 273 | 13.0 | 0.0 | 0.00 | 0.00 | 0.00 | 44 | 1017.0 |
| 20260831150002 | 73 | 295 | 8.0 | 0.0 | 0.00 | 0.00 | 0.00 | 42 | 1017.0 |
| 20260831145501 | 73 | 255 | 4.0 | 0.0 | 0.00 | 0.00 | 0.00 | 44 | 1017.1 |
| 20260831145002 | 73 | 273 | 4.0 | 0.0 | 0.00 | 0.00 | 0.00 | 42 | 1016.9 |
| 20260831144501 | 73 | 249 | 6.0 | 0.0 | 0.00 | 0.00 | 0.00 | 42 | 1016.9 |
| 20260831144001 | 73 | 296 | 8.0 | 0.0 | 0.00 | 0.00 | 0.00 | 43 | 1017.0 |
| 20260831143502 | 73 | 250 | 4.0 | 0.0 | 0.00 | 0.00 | 0.00 | 46 | 1016.9 |
| 20260831143001 | 73 | 255 | 8.0 | 0.0 | 0.00 | 0.00 | 0.00 | 45 | 1017.0 |
| 20260831142502 | 72 | 246 | 5.0 | 0.0 | 0.00 | 0.00 | 0.00 | 45 | 1016.9 |
| 20260831142001 | 73 | 311 | 3.0 | 0.0 | 0.00 | 0.00 | 0.00 | 45 | 1017.1 |
| 20260831141502 | 73 | 254 | 10.0 | 0.0 | 0.00 | 0.00 | 0.00 | 47 | 1016.9 |
| 20260831141001 | 73 | 273 | 8.0 | 0.0 | 0.00 | 0.00 | 0.00 | 47 | 1017.1 |
| 20260831140502 | 72 | 263 | 6.0 | 0.0 | 0.00 | 0.00 | 0.00 | 47 | 1017.0 |
| 20260831140001 | 71 | 274 | 8.0 | 0.0 | 0.00 | 0.00 | 0.00 | 47 | 1017.1 |
| 20260831135501 | 71 | 265 | 9.0 | 0.0 | 0.00 | 0.00 | 0.00 | 46 | 1017.2 |
| 20260831135003 | 71 | 260 | 6.0 | 0.0 | 0.00 | 0.00 | 0.00 | 48 | 1017.2 |
| 20260831134501 | 72 | 226 | 9.0 | 0.0 | 0.00 | 0.00 | 0.00 | 48 | 1017.2 |
| 20260831134002 | 71 | 285 | 13.0 | 0.0 | 0.00 | 0.00 | 0.00 | 48 | 1017.3 |
| 20260831133501 | 71 | 251 | 7.0 | 0.0 | 0.00 | 0.00 | 0.00 | 49 | 1017.2 |
| 20260831133002 | 71 | 251 | 9.0 | 0.0 | 0.00 | 0.00 | 0.00 | 48 | 1017.3 |
| 20260831132503 | 71 | 245 | 11.0 | 0.0 | 0.00 | 0.00 | 0.00 | 48 | 1017.2 |
| 20260831132002 | 71 | 297 | 8.0 | 0.0 | 0.00 | 0.00 | 0.00 | 48 | 1017.2 |
| 20260831131501 | 71 | 252 | 12.0 | 0.0 | 0.00 | 0.00 | 0.00 | 49 | 1017.3 |
| 20260831131001 | 71 | 269 | 7.0 | 0.0 | 0.00 | 0.00 | 0.00 | 48 | 1017.4 |
| 20260831130502 | 71 | 294 | 9.0 | 0.0 | 0.00 | 0.00 | 0.00 | 50 | 1017.3 |
| 20260831130001 | 70 | 294 | 3.0 | 0.0 | 0.00 | 0.00 | 0.00 | 48 | 1017.5 |
| 20260831125502 | 71 | 258 | 7.0 | 0.0 | 0.00 | 0.00 | 0.00 | 48 | 1017.5 |
| 20260831125001 | 71 | 262 | 3.0 | 0.0 | 0.00 | 0.00 | 0.00 | 52 | 1017.5 |
| 20260831124502 | 71 | 281 | 4.0 | 0.0 | 0.00 | 0.00 | 0.00 | 51 | 1017.5 |
| 20260831124002 | 71 | 283 | 10.0 | 0.0 | 0.00 | 0.00 | 0.00 | 51 | 1017.4 |
| 20260831123502 | 70 | 289 | 12.0 | 0.0 | 0.00 | 0.00 | 0.00 | 52 | 1017.5 |
| 20260831123001 | 71 | 276 | 8.0 | 0.0 | 0.00 | 0.00 | 0.00 | 52 | 1017.4 |
| 20260831122501 | 71 | 257 | 10.0 | 0.0 | 0.00 | 0.00 | 0.00 | 52 | 1017.4 |
| 20260831122001 | 71 | 293 | 9.0 | 0.0 | 0.00 | 0.00 | 0.00 | 54 | 1017.4 |
| 20260831121501 | 70 | 262 | 3.0 | 0.0 | 0.00 | 0.00 | 0.00 | 54 | 1017.5 |
| 20260831121002 | 70 | 266 | 8.0 | 0.0 | 0.00 | 0.00 | 0.00 | 54 | 1017.5 |
| 20260831120502 | 70 | 255 | 4.0 | 0.0 | 0.00 | 0.00 | 0.00 | 54 | 1017.4 |
| 20260831120003 | 70 | 255 | 9.0 | 0.0 | 0.00 | 0.00 | 0.00 | 52 | 1017.6 |
| 20260831115501 | 70 | 282 | 8.0 | 0.0 | 0.00 | 0.00 | 0.00 | 52 | 1017.6 |
| 20260831115002 | 69 | 293 | 9.0 | 0.0 | 0.00 | 0.00 | 0.00 | 51 | 1017.6 |
| 20260831114501 | 69 | 294 | 9.0 | 0.0 | 0.00 | 0.00 | 0.00 | 53 | 1017.7 |
| 20260831114003 | 69 | 270 | 6.0 | 0.0 | 0.00 | 0.00 | 0.00 | 52 | 1017.7 |
| 20260831113501 | 69 | 281 | 11.0 | 0.0 | 0.00 | 0.00 | 0.00 | 53 | 1017.8 |
| 20260831113001 | 69 | 239 | 9.0 | 0.0 | 0.00 | 0.00 | 0.00 | 52 | 1017.6 |
| 20260831112502 | 69 | 250 | 7.0 | 0.0 | 0.00 | 0.00 | 0.00 | 55 | 1017.8 |
| 20260831112002 | 69 | 273 | 10.0 | 0.0 | 0.00 | 0.00 | 0.00 | 54 | 1017.7 |
| 20260831111502 | 68 | 295 | 10.0 | 0.0 | 0.00 | 0.00 | 0.00 | 53 | 1017.6 |
| 20260831111001 | 68 | 291 | 12.0 | 0.0 | 0.00 | 0.00 | 0.00 | 53 | 1017.8 |
| 20260831110502 | 68 | 267 | 5.0 | 0.0 | 0.00 | 0.00 | 0.00 | 52 | 1017.7 |
| 20260831110001 | 68 | 245 | 13.0 | 0.0 | 0.00 | 0.00 | 0.00 | 53 | 1017.5 |
| 20260831105502 | 68 | 254 | 10.0 | 0.0 | 0.00 | 0.00 | 0.00 | 55 | 1017.6 |
| 20260831105001 | 68 | 284 | 8.0 | 0.0 | 0.00 | 0.00 | 0.00 | 58 | 1017.6 |
| 20260831104501 | 67 | 280 | 11.0 | 0.0 | 0.00 | 0.00 | 0.00 | 60 | 1017.7 |
| 20260831104002 | 67 | 254 | 7.0 | 0.0 | 0.00 | 0.00 | 0.00 | 60 | 1017.6 |
| 20260831103501 | 67 | 254 | 6.0 | 0.0 | 0.00 | 0.00 | 0.00 | 60 | 1017.6 |
| 20260831103002 | 68 | 257 | 9.0 | 0.0 | 0.00 | 0.00 | 0.00 | 61 | 1017.6 |
| 20260831102501 | 67 | 245 | 14.0 | 0.0 | 0.00 | 0.00 | 0.00 | 62 | 1017.6 |
| 20260831102003 | 67 | 286 | 6.0 | 0.0 | 0.00 | 0.00 | 0.00 | 63 | 1017.6 |
| 20260831101502 | 67 | 260 | 3.0 | 0.0 | 0.00 | 0.00 | 0.00 | 62 | 1017.5 |
| 20260831101002 | 67 | 285 | 6.0 | 0.0 | 0.00 | 0.00 | 0.00 | 63 | 1017.6 |
| 20260831100501 | 68 | 255 | 5.0 | 0.0 | 0.00 | 0.00 | 0.00 | 65 | 1017.6 |
| 20260831100002 | 66 | 284 | 2.0 | 0.0 | 0.00 | 0.00 | 0.00 | 64 | 1017.6 |
| 20260831095503 | 66 | 255 | 10.0 | 0.0 | 0.00 | 0.00 | 0.00 | 64 | 1017.7 |
| 20260831095001 | 67 | 255 | 7.0 | 0.0 | 0.00 | 0.00 | 0.00 | 66 | 1017.7 |
| 20260831094502 | 66 | 268 | 8.0 | 0.0 | 0.00 | 0.00 | 0.00 | 66 | 1017.7 |
| 20260831094001 | 66 | 278 | 8.0 | 0.0 | 0.00 | 0.00 | 0.00 | 67 | 1017.8 |
| 20260831093502 | 67 | 259 | 9.0 | 0.0 | 0.00 | 0.00 | 0.00 | 69 | 1017.7 |
| 20260831093001 | 66 | 280 | 10.0 | 0.0 | 0.00 | 0.00 | 0.00 | 69 | 1017.8 |
| 20260831092502 | 66 | 263 | 5.0 | 0.0 | 0.00 | 0.00 | 0.00 | 69 | 1017.7 |
| 20260831092001 | 65 | 251 | 4.0 | 0.0 | 0.00 | 0.00 | 0.00 | 69 | 1017.8 |
| 20260831091502 | 65 | 258 | 10.0 | 0.0 | 0.00 | 0.00 | 0.00 | 69 | 1017.8 |
| 20260831091002 | 65 | 262 | 7.0 | 0.0 | 0.00 | 0.00 | 0.00 | 70 | 1017.9 |
| 20260831090501 | 64 | 270 | 6.0 | 0.0 | 0.00 | 0.00 | 0.00 | 73 | 1017.8 |
| 20260831090002 | 64 | 282 | 10.0 | 0.0 | 0.00 | 0.00 | 0.00 | 72 | 1017.8 |
| 20260831085501 | 64 | 280 | 4.0 | 0.0 | 0.00 | 0.00 | 0.00 | 72 | 1017.7 |
| 20260831085002 | 65 | 266 | 3.0 | 0.0 | 0.00 | 0.00 | 0.00 | 73 | 1017.9 |
| 20260831084501 | 65 | 285 | 7.0 | 0.0 | 0.00 | 0.00 | 0.00 | 74 | 1017.8 |
| 20260831084002 | 65 | 261 | 8.0 | 0.0 | 0.00 | 0.00 | 0.00 | 74 | 1017.7 |
| 20260831083501 | 65 | 245 | 4.0 | 0.0 | 0.00 | 0.00 | 0.00 | 76 | 1017.6 |
| 20260831083002 | 64 | 294 | 6.0 | 0.0 | 0.00 | 0.00 | 0.00 | 75 | 1017.6 |
| 20260831082502 | 64 | 283 | 11.0 | 0.0 | 0.00 | 0.00 | 0.00 | 76 | 1017.5 |
| 20260831082002 | 64 | 258 | 5.0 | 0.0 | 0.00 | 0.00 | 0.00 | 77 | 1017.6 |
| 20260831081502 | 65 | 263 | 8.0 | 0.0 | 0.00 | 0.00 | 0.00 | 76 | 1017.5 |
| 20260831081001 | 65 | 274 | 6.0 | 0.0 | 0.00 | 0.00 | 0.00 | 77 | 1017.4 |
| 20260831080502 | 65 | 264 | 8.0 | 0.0 | 0.00 | 0.00 | 0.00 | 76 | 1017.4 |
| 20260831080001 | 64 | 271 | 5.0 | 0.0 | 0.00 | 0.00 | 0.00 | 77 | 1017.4 |
| 20260831075502 | 65 | 253 | 4.0 | 0.0 | 0.00 | 0.00 | 0.00 | 77 | 1017.4 |
| 20260831075001 | 65 | 290 | 9.0 | 0.0 | 0.00 | 0.00 | 0.00 | 79 | 1017.3 |
| 20260831074502 | 64 | 268 | 5.0 | 0.0 | 0.00 | 0.00 | 0.00 | 83 | 1017.2 |
| 20260831074002 | 64 | 271 | 7.0 | 0.0 | 0.00 | 0.00 | 0.00 | 84 | 1017.2 |
| 20260831073501 | 63 | 272 | 7.0 | 0.0 | 0.00 | 0.00 | 0.00 | 86 | 1017.2 |
| 20260831073002 | 62 | 281 | 7.0 | 0.0 | 0.00 | 0.00 | 0.00 | 86 | 1017.1 |
| 20260831072501 | 62 | 257 | 4.0 | 0.0 | 0.00 | 0.00 | 0.00 | 87 | 1017.1 |
| 20260831072002 | 62 | 243 | 5.0 | 0.0 | 0.00 | 0.00 | 0.00 | 87 | 1017.0 |
| 20260831071502 | 62 | 238 | 5.0 | 0.0 | 0.00 | 0.00 | 0.00 | 87 | 1017.1 |
| 20260831071002 | 62 | 254 | 7.0 | 0.0 | 0.00 | 0.00 | 0.00 | 87 | 1017.0 |
| 20260831070501 | 62 | 280 | 7.0 | 0.0 | 0.00 | 0.00 | 0.00 | 87 | 1017.0 |
| 20260831070002 | 62 | 278 | 9.0 | 0.0 | 0.00 | 0.00 | 0.00 | 87 | 1016.8 |
| 20260831065502 | 63 | 247 | 6.0 | 0.0 | 0.00 | 0.00 | 0.00 | 89 | 1016.7 |
| 20260831065002 | 63 | 265 | 7.0 | 0.0 | 0.00 | 0.00 | 0.00 | 89 | 1016.8 |
| 20260831064502 | 63 | 253 | 4.0 | 0.0 | 0.00 | 0.00 | 0.00 | 89 | 1016.8 |
| 20260831064001 | 63 | 284 | 9.0 | 0.0 | 0.00 | 0.00 | 0.00 | 89 | 1016.7 |
| 20260831063502 | 63 | 269 | 4.0 | 0.0 | 0.00 | 0.00 | 0.00 | 91 | 1016.7 |
| 20260831063001 | 62 | 274 | 5.0 | 0.0 | 0.00 | 0.00 | 0.00 | 91 | 1016.7 |
| 20260831062502 | 62 | 246 | 4.0 | 0.0 | 0.00 | 0.00 | 0.00 | 91 | 1016.7 |
| 20260831062001 | 62 | 269 | 6.0 | 0.0 | 0.00 | 0.00 | 0.00 | 92 | 1016.5 |
| 20260831061502 | 62 | 250 | 4.0 | 0.0 | 0.00 | 0.00 | 0.00 | 93 | 1016.6 |
| 20260831061002 | 62 | 246 | 4.0 | 0.0 | 0.00 | 0.00 | 0.00 | 93 | 1016.5 |
| 20260831060502 | 61 | 262 | 5.0 | 0.0 | 0.00 | 0.00 | 0.00 | 94 | 1016.5 |
| 20260831060002 | 61 | 259 | 4.0 | 0.0 | 0.00 | 0.00 | 0.00 | 95 | 1016.5 |
| 20260831055501 | 61 | 269 | 2.0 | 0.0 | 0.00 | 0.00 | 0.00 | 95 | 1016.5 |
| 20260831055002 | 61 | 268 | 6.0 | 0.0 | 0.00 | 0.00 | 0.00 | 96 | 1016.5 |
| 20260831054501 | 61 | 263 | 2.0 | 0.0 | 0.00 | 0.00 | 0.00 | 96 | 1016.5 |
| 20260831054002 | 61 | 272 | 7.0 | 0.0 | 0.00 | 0.00 | 0.00 | 95 | 1016.5 |
| 20260831053501 | 61 | 278 | 7.0 | 0.0 | 0.00 | 0.00 | 0.00 | 95 | 1016.4 |
| 20260831053002 | 61 | 268 | 3.0 | 0.0 | 0.00 | 0.00 | 0.00 | 95 | 1016.4 |
| 20260831052501 | 61 | 257 | 4.0 | 0.0 | 0.00 | 0.00 | 0.00 | 95 | 1016.4 |
| 20260831052002 | 60 | 250 | 5.0 | 0.0 | 0.00 | 0.00 | 0.00 | 95 | 1016.3 |
| 20260831051501 | 60 | 240 | 4.0 | 0.0 | 0.00 | 0.00 | 0.00 | 96 | 1016.4 |
| 20260831051001 | 60 | 246 | 5.0 | 0.0 | 0.00 | 0.00 | 0.00 | 96 | 1016.3 |
| 20260831050502 | 60 | 229 | 4.0 | 0.0 | 0.00 | 0.00 | 0.00 | 96 | 1016.3 |
| 20260831050001 | 60 | 259 | 3.0 | 0.0 | 0.00 | 0.00 | 0.00 | 96 | 1016.3 |
| 20260831045502 | 60 | 253 | 4.0 | 0.0 | 0.00 | 0.00 | 0.00 | 96 | 1016.2 |
| 20260831045001 | 60 | 242 | 2.0 | 0.0 | 0.00 | 0.00 | 0.00 | 97 | 1016.2 |
| 20260831044502 | 60 | 260 | 3.0 | 0.0 | 0.00 | 0.00 | 0.00 | 97 | 1016.2 |
| 20260831044001 | 59 | 249 | 3.0 | 0.0 | 0.00 | 0.00 | 0.00 | 97 | 1016.4 |
| 20260831043502 | 59 | 243 | 2.0 | 0.0 | 0.00 | 0.00 | 0.00 | 96 | 1016.4 |
| 20260831043001 | 59 | 262 | 3.0 | 0.0 | 0.00 | 0.00 | 0.00 | 96 | 1016.3 |
| 20260831042502 | 59 | 244 | 3.0 | 0.0 | 0.00 | 0.00 | 0.00 | 95 | 1016.3 |
| 20260831042001 | 60 | 239 | 2.0 | 0.0 | 0.00 | 0.00 | 0.00 | 95 | 1016.3 |
| 20260831041502 | 60 | 260 | 3.0 | 0.0 | 0.00 | 0.00 | 0.00 | 95 | 1016.3 |
| 20260831041002 | 60 | 240 | 2.0 | 0.0 | 0.00 | 0.00 | 0.00 | 95 | 1016.4 |
| 20260831040501 | 60 | 225 | 3.0 | 0.0 | 0.00 | 0.00 | 0.00 | 95 | 1016.5 |
| 20260831040002 | 60 | 267 | 4.0 | 0.0 | 0.00 | 0.00 | 0.00 | 95 | 1016.4 |
| 20260831035502 | 60 | 296 | 5.0 | 0.0 | 0.00 | 0.00 | 0.00 | 95 | 1016.4 |
| 20260831035001 | 60 | 271 | 3.0 | 0.0 | 0.00 | 0.00 | 0.00 | 96 | 1016.4 |
| 20260831034502 | 60 | 284 | 7.0 | 0.0 | 0.00 | 0.00 | 0.00 | 96 | 1016.4 |
| 20260831034002 | 60 | 288 | 4.0 | 0.0 | 0.00 | 0.00 | 0.00 | 96 | 1016.4 |
| 20260831033501 | 60 | 281 | 8.0 | 0.0 | 0.00 | 0.00 | 0.00 | 96 | 1016.3 |
| 20260831033002 | 60 | 278 | 6.0 | 0.0 | 0.00 | 0.00 | 0.00 | 96 | 1016.1 |
| 20260831032502 | 60 | 272 | 5.0 | 0.0 | 0.00 | 0.00 | 0.00 | 96 | 1016.2 |
| 20260831032001 | 60 | 294 | 2.0 | 0.0 | 0.00 | 0.00 | 0.00 | 95 | 1016.2 |
| 20260831031502 | 60 | 282 | 0.0 | 0.0 | 0.00 | 0.00 | 0.00 | 96 | 1016.2 |
| 20260831031002 | 60 | 274 | 4.0 | 0.0 | 0.00 | 0.00 | 0.00 | 96 | 1016.1 |
| 20260831030501 | 60 | 249 | 4.0 | 0.0 | 0.00 | 0.00 | 0.00 | 96 | 1016.1 |
| 20260831030002 | 60 | 241 | 5.0 | 0.0 | 0.00 | 0.00 | 0.00 | 96 | 1016.1 |
| 20260831025502 | 60 | 216 | 5.0 | 0.0 | 0.00 | 0.00 | 0.00 | 96 | 1016.1 |
| 20260831025001 | 60 | 237 | 4.0 | 0.0 | 0.00 | 0.00 | 0.00 | 96 | 1016.0 |
| 20260831024502 | 60 | 242 | 3.0 | 0.0 | 0.00 | 0.00 | 0.00 | 96 | 1016.1 |
| 20260831024002 | 60 | 240 | 4.0 | 0.0 | 0.00 | 0.00 | 0.00 | 96 | 1016.1 |
| 20260831023501 | 60 | 222 | 2.0 | 0.0 | 0.00 | 0.00 | 0.00 | 96 | 1016.3 |
| 20260831023002 | 60 | 206 | 5.0 | 0.0 | 0.00 | 0.00 | 0.00 | 95 | 1016.2 |
| 20260831022503 | 60 | 208 | 3.0 | 0.0 | 0.00 | 0.00 | 0.00 | 95 | 1016.2 |
| 20260831022001 | 60 | 205 | 2.0 | 0.0 | 0.00 | 0.00 | 0.00 | 94 | 1016.3 |
| 20260831021502 | 60 | 240 | 2.0 | 0.0 | 0.00 | 0.00 | 0.00 | 93 | 1016.0 |
| 20260831021002 | 60 | 239 | 2.0 | 0.0 | 0.00 | 0.00 | 0.00 | 93 | 1016.1 |
| 20260831020501 | 60 | 274 | 4.0 | 0.0 | 0.00 | 0.00 | 0.00 | 94 | 1016.0 |
| 20260831020001 | 60 | 236 | 3.0 | 0.0 | 0.00 | 0.00 | 0.00 | 94 | 1016.1 |
| 20260831015502 | 60 | 285 | 3.0 | 0.0 | 0.00 | 0.00 | 0.00 | 93 | 1016.0 |
| 20260831015001 | 60 | 191 | 4.0 | 0.0 | 0.00 | 0.00 | 0.00 | 92 | 1015.9 |
| 20260831014502 | 60 | 242 | 2.0 | 0.0 | 0.00 | 0.00 | 0.00 | 91 | 1016.1 |
| 20260831014002 | 61 | 265 | 5.0 | 0.0 | 0.00 | 0.00 | 0.00 | 91 | 1016.2 |
| 20260831013501 | 61 | 261 | 8.0 | 0.0 | 0.00 | 0.00 | 0.00 | 90 | 1015.8 |
| 20260831013002 | 61 | 240 | 2.0 | 0.0 | 0.00 | 0.00 | 0.00 | 89 | 1015.9 |
| 20260831012502 | 61 | 263 | 6.0 | 0.0 | 0.00 | 0.00 | 0.00 | 88 | 1016.4 |
| 20260831012002 | 62 | 288 | 10.0 | 0.0 | 0.00 | 0.00 | 0.00 | 85 | 1015.7 |
| 20260831011502 | 64 | 337 | 11.0 | 0.0 | 0.00 | 0.00 | 0.00 | 78 | 1015.4 |
| 20260831011002 | 64 | 338 | 6.0 | 0.0 | 0.00 | 0.00 | 0.00 | 78 | 1015.7 |
| 20260831010501 | 65 | 270 | 7.0 | 0.0 | 0.00 | 0.00 | 0.00 | 77 | 1014.7 |
| 20260831010001 | 65 | 293 | 5.0 | 0.0 | 0.00 | 0.00 | 0.00 | 76 | 1014.4 |
| 20260831005502 | 66 | 279 | 6.0 | 0.0 | 0.00 | 0.00 | 0.00 | 74 | 1014.0 |
| 20260831005001 | 64 | 289 | 7.0 | 0.0 | 0.00 | 0.00 | 0.00 | 79 | 1013.9 |
| 20260831004501 | 64 | 297 | 5.0 | 0.0 | 0.00 | 0.00 | 0.00 | 77 | 1013.7 |
| 20260831004002 | 64 | 219 | 1.0 | 0.0 | 0.00 | 0.00 | 0.00 | 77 | 1013.5 |
| 20260831003501 | 65 | 242 | 1.0 | 0.0 | 0.00 | 0.00 | 0.00 | 76 | 1013.5 |
| 20260831003001 | 65 | 252 | 1.0 | 0.0 | 0.00 | 0.00 | 0.00 | 75 | 1013.5 |
| 20260831002502 | 64 | 244 | 1.0 | 0.0 | 0.00 | 0.00 | 0.00 | 76 | 1013.6 |
| 20260831002001 | 64 | 242 | 2.0 | 0.0 | 0.00 | 0.00 | 0.00 | 77 | 1013.7 |
| 20260831001502 | 64 | 296 | 2.0 | 0.0 | 0.00 | 0.00 | 0.00 | 78 | 1013.7 |
| 20260831001002 | 64 | 320 | 2.0 | 0.0 | 0.00 | 0.00 | 0.00 | 77 | 1013.6 |
| 20260831000501 | 65 | 310 | 1.0 | 0.0 | 0.00 | 0.00 | 0.00 | 75 | 1013.7 |
| 20260831000002 | 63 | 304 | 2.0 | 0.0 | 0.00 | 0.00 | 0.00 | 79 | 1013.7 |
| 20260830235502 | 64 | 321 | 3.0 | 0.0 | 0.00 | 0.00 | 0.00 | 76 | 1013.5 |
| 20260830235001 | 66 | 0 | 0.0 | 0.0 | 0.00 | 0.00 | 0.00 | 73 | 1013.5 |
| 20260830234501 | 65 | 0 | 0.0 | 0.0 | 0.00 | 0.00 | 0.00 | 73 | 1013.6 |
| 20260830234002 | 65 | 0 | 0.0 | 0.0 | 0.00 | 0.00 | 0.00 | 75 | 1013.6 |
| 20260830233501 | 65 | 0 | 0.0 | 0.0 | 0.00 | 0.00 | 0.00 | 75 | 1013.7 |
| 20260830233002 | 64 | 336 | 1.0 | 0.0 | 0.00 | 0.00 | 0.00 | 80 | 1013.7 |
| 20260830232502 | 63 | 328 | 3.0 | 0.0 | 0.00 | 0.00 | 0.00 | 79 | 1013.7 |
| 20260830232001 | 65 | 328 | 2.0 | 0.0 | 0.00 | 0.00 | 0.00 | 77 | 1013.7 |
| 20260830231502 | 65 | 326 | 2.0 | 0.0 | 0.00 | 0.00 | 0.00 | 74 | 1013.7 |
| 20260830231002 | 65 | 71 | 1.0 | 0.0 | 0.00 | 0.00 | 0.00 | 74 | 1013.9 |
| 20260830230501 | 65 | 0 | 0.0 | 0.0 | 0.00 | 0.00 | 0.00 | 77 | 1013.8 |
| 20260830230001 | 66 | 344 | 1.0 | 0.0 | 0.00 | 0.00 | 0.00 | 74 | 1013.9 |
| 20260830225502 | 65 | 47 | 1.0 | 0.0 | 0.00 | 0.00 | 0.00 | 76 | 1013.8 |
| 20260830225001 | 65 | 339 | 3.0 | 0.0 | 0.00 | 0.00 | 0.00 | 75 | 1013.9 |
| 20260830224502 | 67 | 0 | 0.0 | 0.0 | 0.00 | 0.00 | 0.00 | 70 | 1014.0 |
| 20260830224002 | 67 | 37 | 1.0 | 0.0 | 0.00 | 0.00 | 0.00 | 70 | 1014.0 |
| 20260830223501 | 67 | 0 | 0.0 | 0.0 | 0.00 | 0.00 | 0.00 | 70 | 1014.1 |
| 20260830223001 | 67 | 45 | 0.0 | 0.0 | 0.00 | 0.00 | 0.00 | 71 | 1014.0 |
| 20260830222502 | 67 | 335 | 1.0 | 0.0 | 0.00 | 0.00 | 0.00 | 70 | 1014.1 |
| 20260830222001 | 68 | 0 | 0.0 | 0.0 | 0.00 | 0.00 | 0.00 | 68 | 1014.1 |
| 20260830221501 | 68 | 0 | 0.0 | 0.0 | 0.00 | 0.00 | 0.00 | 68 | 1014.2 |
| 20260830221002 | 69 | 0 | 0.0 | 0.0 | 0.00 | 0.00 | 0.00 | 67 | 1014.3 |
| 20260830220501 | 68 | 292 | 0.0 | 0.0 | 0.00 | 0.00 | 0.00 | 68 | 1014.3 |
| 20260830220001 | 67 | 288 | 1.0 | 0.0 | 0.00 | 0.00 | 0.00 | 71 | 1014.3 |
| 20260830215502 | 68 | 245 | 2.0 | 0.0 | 0.00 | 0.00 | 0.00 | 68 | 1014.2 |
| 20260830215001 | 67 | 280 | 1.0 | 0.0 | 0.00 | 0.00 | 0.00 | 71 | 1014.3 |
| 20260830214501 | 68 | 306 | 2.0 | 0.0 | 0.00 | 0.00 | 0.00 | 69 | 1014.3 |
| 20260830214002 | 69 | 269 | 1.0 | 0.0 | 0.00 | 0.00 | 0.00 | 66 | 1014.3 |
| 20260830213501 | 69 | 218 | 1.0 | 0.0 | 0.00 | 0.00 | 0.00 | 67 | 1014.4 |
| 20260830213001 | 67 | 235 | 0.0 | 0.0 | 0.00 | 0.00 | 0.00 | 71 | 1014.4 |
| 20260830212502 | 68 | 330 | 2.0 | 0.0 | 0.00 | 0.00 | 0.00 | 69 | 1014.4 |
| 20260830212001 | 68 | 297 | 1.0 | 0.0 | 0.00 | 0.00 | 0.00 | 68 | 1014.5 |
| 20260830211501 | 69 | 0 | 0.0 | 0.0 | 0.00 | 0.00 | 0.00 | 66 | 1014.4 |
| 20260830211002 | 69 | 0 | 0.0 | 0.0 | 0.00 | 0.00 | 0.00 | 65 | 1014.4 |
| 20260830210501 | 70 | 100 | 0.0 | 0.0 | 0.00 | 0.00 | 0.00 | 65 | 1014.4 |
| 20260830210001 | 70 | 0 | 0.0 | 0.0 | 0.00 | 0.00 | 0.00 | 64 | 1014.4 |
| 20260830205502 | 70 | 0 | 0.0 | 0.0 | 0.00 | 0.00 | 0.00 | 64 | 1014.5 |
| 20260830205001 | 70 | 0 | 0.0 | 0.0 | 0.00 | 0.00 | 0.00 | 64 | 1014.5 |
| 20260830204501 | 70 | 0 | 0.0 | 0.0 | 0.00 | 0.00 | 0.00 | 64 | 1014.6 |
| 20260830204002 | 69 | 0 | 0.0 | 0.0 | 0.00 | 0.00 | 0.00 | 66 | 1014.6 |
| 20260830203501 | 70 | 313 | 0.0 | 0.0 | 0.00 | 0.00 | 0.00 | 65 | 1014.5 |
| 20260830203002 | 70 | 236 | 1.0 | 0.0 | 0.00 | 0.00 | 0.00 | 65 | 1014.6 |
| 20260830202502 | 70 | 215 | 1.0 | 0.0 | 0.00 | 0.00 | 0.00 | 64 | 1014.7 |
| 20260830202001 | 70 | 220 | 2.0 | 0.0 | 0.00 | 0.00 | 0.00 | 64 | 1014.6 |
| 20260830201501 | 71 | 213 | 2.0 | 0.0 | 0.00 | 0.00 | 0.00 | 62 | 1014.7 |
| 20260830201002 | 71 | 211 | 1.0 | 0.0 | 0.00 | 0.00 | 0.00 | 63 | 1014.6 |
| 20260830200501 | 71 | 294 | 1.0 | 0.0 | 0.00 | 0.00 | 0.00 | 64 | 1014.7 |
| 20260830200001 | 70 | 317 | 1.0 | 0.0 | 0.00 | 0.00 | 0.00 | 65 | 1014.6 |
| 20260830195502 | 71 | 308 | 1.0 | 0.0 | 0.00 | 0.00 | 0.00 | 64 | 1014.6 |
| 20260830195001 | 70 | 308 | 2.0 | 0.0 | 0.00 | 0.00 | 0.00 | 66 | 1014.6 |
| 20260830194501 | 70 | 315 | 2.0 | 0.0 | 0.00 | 0.00 | 0.00 | 64 | 1014.7 |
| 20260830194002 | 71 | 306 | 2.0 | 0.0 | 0.00 | 0.00 | 0.00 | 63 | 1014.7 |
| 20260830193501 | 71 | 285 | 1.0 | 0.0 | 0.00 | 0.00 | 0.00 | 63 | 1014.6 |
| 20260830193001 | 71 | 0 | 0.0 | 0.0 | 0.00 | 0.00 | 0.00 | 63 | 1014.6 |
| 20260830192502 | 71 | 0 | 0.0 | 0.0 | 0.00 | 0.00 | 0.00 | 64 | 1014.7 |
| 20260830192001 | 71 | 358 | 1.0 | 0.0 | 0.00 | 0.00 | 0.00 | 64 | 1014.7 |
| 20260830191501 | 71 | 268 | 1.0 | 0.0 | 0.00 | 0.00 | 0.00 | 63 | 1014.8 |
| 20260830191002 | 71 | 243 | 1.0 | 0.0 | 0.00 | 0.00 | 0.00 | 63 | 1014.7 |
| 20260830190501 | 71 | 264 | 1.0 | 0.0 | 0.00 | 0.00 | 0.00 | 63 | 1014.6 |
| 20260830190001 | 71 | 264 | 1.0 | 0.0 | 0.00 | 0.00 | 0.00 | 63 | 1014.6 |
| 20260830185501 | 71 | 240 | 3.0 | 0.0 | 0.00 | 0.00 | 0.00 | 62 | 1014.6 |
| 20260830185002 | 72 | 244 | 2.0 | 0.0 | 0.00 | 0.00 | 0.00 | 61 | 1014.5 |
| 20260830184501 | 72 | 239 | 2.0 | 0.0 | 0.00 | 0.00 | 0.00 | 59 | 1014.6 |
| 20260830184001 | 73 | 242 | 1.0 | 0.0 | 0.00 | 0.00 | 0.00 | 58 | 1014.6 |
| 20260830183501 | 73 | 261 | 2.0 | 0.0 | 0.00 | 0.00 | 0.00 | 57 | 1014.5 |
| 20260830183002 | 73 | 225 | 3.0 | 0.0 | 0.00 | 0.00 | 0.00 | 55 | 1014.5 |
| 20260830182502 | 74 | 240 | 2.0 | 0.0 | 0.00 | 0.00 | 0.00 | 55 | 1014.4 |
| 20260830182001 | 74 | 265 | 2.0 | 0.0 | 0.00 | 0.00 | 0.00 | 56 | 1014.5 |
| 20260830181502 | 74 | 251 | 1.0 | 0.0 | 0.00 | 0.00 | 0.00 | 55 | 1014.5 |
| 20260830181001 | 73 | 256 | 2.0 | 0.0 | 0.00 | 0.00 | 0.00 | 56 | 1014.4 |
| 20260830180502 | 73 | 243 | 2.0 | 0.0 | 0.00 | 0.00 | 0.00 | 57 | 1014.4 |
| 20260830180001 | 74 | 244 | 2.0 | 0.0 | 0.00 | 0.00 | 0.00 | 57 | 1014.5 |
| 20260830175502 | 74 | 245 | 2.0 | 0.0 | 0.00 | 0.00 | 0.00 | 56 | 1014.5 |
| 20260830175001 | 75 | 255 | 1.0 | 0.0 | 0.00 | 0.00 | 0.00 | 54 | 1014.3 |
| 20260830174502 | 75 | 251 | 1.0 | 0.0 | 0.00 | 0.00 | 0.00 | 55 | 1014.4 |
| 20260830174002 | 75 | 241 | 1.0 | 0.0 | 0.00 | 0.00 | 0.00 | 54 | 1014.3 |
| 20260830173501 | 76 | 238 | 1.0 | 0.0 | 0.00 | 0.00 | 0.00 | 54 | 1014.5 |
| 20260830173002 | 75 | 267 | 1.0 | 0.0 | 0.00 | 0.00 | 0.00 | 53 | 1014.4 |
| 20260830172502 | 75 | 247 | 1.0 | 0.0 | 0.00 | 0.00 | 0.00 | 55 | 1014.4 |
| 20260830172002 | 75 | 235 | 1.0 | 0.0 | 0.00 | 0.00 | 0.00 | 56 | 1014.4 |
| 20260830171501 | 75 | 239 | 2.0 | 0.0 | 0.00 | 0.00 | 0.00 | 53 | 1014.4 |
| 20260830171002 | 76 | 241 | 3.0 | 0.0 | 0.00 | 0.00 | 0.00 | 52 | 1014.4 |
| 20260830170501 | 77 | 241 | 3.0 | 0.0 | 0.00 | 0.00 | 0.00 | 48 | 1014.5 |
| 20260830170002 | 77 | 256 | 5.0 | 0.0 | 0.00 | 0.00 | 0.00 | 49 | 1014.4 |
| 20260830165502 | 76 | 272 | 6.0 | 0.0 | 0.00 | 0.00 | 0.00 | 47 | 1014.4 |
| 20260830165001 | 77 | 276 | 7.0 | 0.0 | 0.00 | 0.00 | 0.00 | 47 | 1014.5 |
| 20260830164502 | 77 | 268 | 3.0 | 0.0 | 0.00 | 0.00 | 0.00 | 46 | 1014.4 |
| 20260830164001 | 77 | 284 | 4.0 | 0.0 | 0.00 | 0.00 | 0.00 | 50 | 1014.5 |
| 20260830163502 | 77 | 225 | 2.0 | 0.0 | 0.00 | 0.00 | 0.00 | 50 | 1014.4 |
| 20260830163001 | 76 | 284 | 6.0 | 0.0 | 0.00 | 0.00 | 0.00 | 50 | 1014.3 |
| 20260830162502 | 77 | 272 | 6.0 | 0.0 | 0.00 | 0.00 | 0.00 | 49 | 1014.4 |
| 20260830162002 | 77 | 272 | 7.0 | 0.0 | 0.00 | 0.00 | 0.00 | 50 | 1014.5 |
| 20260830161502 | 77 | 263 | 6.0 | 0.0 | 0.00 | 0.00 | 0.00 | 49 | 1014.4 |
| 20260830161002 | 77 | 283 | 8.0 | 0.0 | 0.00 | 0.00 | 0.00 | 50 | 1014.4 |
| 20260830160502 | 77 | 296 | 5.0 | 0.0 | 0.00 | 0.00 | 0.00 | 49 | 1014.5 |
| 20260830160002 | 77 | 263 | 6.0 | 0.0 | 0.00 | 0.00 | 0.00 | 49 | 1014.5 |
| 20260830155501 | 77 | 274 | 7.0 | 0.0 | 0.00 | 0.00 | 0.00 | 49 | 1014.6 |
| 20260830155002 | 77 | 245 | 4.0 | 0.0 | 0.00 | 0.00 | 0.00 | 50 | 1014.6 |
| 20260830154501 | 77 | 265 | 3.0 | 0.0 | 0.00 | 0.00 | 0.00 | 51 | 1014.6 |
| 20260830154002 | 77 | 330 | 6.0 | 0.0 | 0.00 | 0.00 | 0.00 | 50 | 1014.7 |
| 20260830153501 | 77 | 264 | 6.0 | 0.0 | 0.00 | 0.00 | 0.00 | 50 | 1014.6 |
| 20260830153002 | 77 | 267 | 7.0 | 0.0 | 0.00 | 0.00 | 0.00 | 51 | 1014.7 |
| 20260830152503 | 77 | 245 | 3.0 | 0.0 | 0.00 | 0.00 | 0.00 | 52 | 1014.7 |
| 20260830152001 | 77 | 241 | 3.0 | 0.0 | 0.00 | 0.00 | 0.00 | 51 | 1014.7 |